EW2271 Weather Reports


Display with metric or nautical units.
time (UTC)temp
F
wind
direction
speed
MPH
gust
MPH
rain 1hr
in
rain 24hr
in
rain mn
in
humidity
%
barometer
mb
20171216032341 20 230 1.0 3.0 0.00 0.00 0.00 90 1009.1
20171216025935 20 239 0.0 2.0 0.00 0.00 0.00 90 1009.2
20171216025342 21 229 0.0 2.0 0.00 0.00 0.00 90 1009.3
20171216024911 21 229 1.0 4.0 0.00 0.00 0.00 90 1009.4
20171216024417 21 227 1.0 4.0 0.00 0.00 0.00 90 1009.2
20171216023925 21 239 1.0 3.0 0.00 0.00 0.00 90 1009.3
20171216023424 21 252 0.0 3.0 0.00 0.00 0.00 90 1009.2
20171216022944 21 252 0.0 3.0 0.00 0.00 0.00 89 1009.2
20171216022900 21 252 0.0 3.0 0.00 0.00 0.00 89 1009.2
20171216022413 21 284 0.0 2.0 0.00 0.00 0.00 89 1009.1
20171216020836 21 274 1.0 3.0 0.00 0.00 0.00 90 1009.2
20171216015327 21 303 1.0 4.0 0.00 0.00 0.00 90 1009.2
20171216014901 21 250 0.0 2.0 0.00 0.00 0.00 90 1009.2
20171216013915 22 279 0.0 3.0 0.00 0.00 0.00 90 1009.2
20171216013425 22 279 0.0 3.0 0.00 0.00 0.00 90 1009.2
20171216013337 22 279 0.0 3.0 0.00 0.00 0.00 90 1009.2
20171216010846 22 304 1.0 3.0 0.00 0.00 0.00 89 1009.3
20171216010348 22 304 1.0 3.0 0.00 0.00 0.00 89 1009.4
20171216005840 22 267 0.0 2.0 0.00 0.00 0.00 89 1009.5
20171216005432 22 291 0.0 2.0 0.00 0.00 0.00 89 1009.4
20171216004907 22 256 0.0 2.0 0.00 0.00 0.00 89 1009.3
20171216004436 22 256 0.0 2.0 0.00 0.00 0.00 89 1009.4
20171216003936 22 256 0.0 2.0 0.00 0.00 0.00 89 1009.4
20171216001924 22 239 0.0 1.0 0.00 0.00 0.00 89 1009.5
20171216000909 22 239 0.0 2.0 0.00 0.00 0.00 88 1009.6
20171215235418 22 239 0.0 1.0 0.00 0.00 0.00 88 1009.6
20171215232851 22 285 0.0 2.0 0.00 0.00 0.00 88 1009.9
20171215231914 22 285 0.0 3.0 0.00 0.00 0.00 88 1010.0
20171215231400 22 285 0.0 3.0 0.00 0.00 0.00 88 1010.0
20171215230433 22 276 2.0 4.0 0.00 0.00 0.00 87 1010.0
20171215225410 22 293 0.0 2.0 0.00 0.00 0.00 87 1009.8
20171215224839 23 293 0.0 2.0 0.00 0.00 0.00 87 1009.9
20171215224342 23 293 0.0 1.0 0.00 0.00 0.00 86 1009.9
20171215223840 23 293 0.0 2.0 0.00 0.00 0.00 86 1009.9
20171215223342 23 293 0.0 2.0 0.00 0.00 0.00 86 1010.0
20171215222922 23 293 0.0 2.0 0.00 0.00 0.00 85 1009.8
20171215222843 23 293 0.0 2.0 0.00 0.00 0.00 85 1009.8
20171215222340 23 295 1.0 2.0 0.00 0.00 0.00 85 1009.9
20171215221912 23 295 0.0 2.0 0.00 0.00 0.00 85 1009.8
20171215221411 23 295 0.0 2.0 0.00 0.00 0.00 84 1009.8
20171215220834 23 295 0.0 1.0 0.00 0.00 0.00 84 1009.8
20171215215932 23 295 1.0 2.0 0.00 0.00 0.00 82 1009.8
20171215214905 24 295 0.0 2.0 0.00 0.00 0.00 81 1009.6
20171215214424 24 295 0.0 1.0 0.00 0.00 0.00 81 1009.5
20171215213410 24 295 0.0 1.0 0.00 0.00 0.00 80 1009.5
20171215212858 24 295 0.0 1.0 0.00 0.00 0.00 80 1009.6
20171215212416 24 295 0.0 1.0 0.00 0.00 0.00 79 1009.7
20171215211908 24 295 0.0 1.0 0.00 0.00 0.00 78 1009.8
20171215210921 24 295 1.0 2.0 0.00 0.00 0.00 77 1010.0
20171215204901 25 295 1.0 2.0 0.00 0.00 0.00 74 1010.3
20171215204332 25 295 1.0 2.0 0.00 0.00 0.00 72 1010.3
20171215203838 25 295 1.0 2.0 0.00 0.00 0.00 71 1010.3
20171215203415 25 295 0.0 0.0 0.00 0.00 0.00 71 1010.3
20171215202514 25 295 0.0 0.0 0.00 0.00 0.00 70 1010.4
20171215202430 25 295 0.0 0.0 0.00 0.00 0.00 70 1010.4
20171215201935 25 295 0.0 0.0 0.00 0.00 0.00 69 1010.6
20171215201332 25 295 0.0 1.0 0.00 0.00 0.00 69 1010.6
20171215194848 25 295 0.0 1.0 0.00 0.00 0.00 69 1011.0
20171215193408 25 295 0.0 1.0 0.00 0.00 0.00 68 1011.2
20171215192851 25 295 0.0 2.0 0.00 0.00 0.00 68 1011.3
20171215190407 25 295 1.0 2.0 0.00 0.00 0.00 67 1011.9
20171215185900 25 295 0.0 1.0 0.00 0.00 0.00 68 1012.1
20171215185412 25 295 0.0 2.0 0.00 0.00 0.00 66 1012.1
20171215184906 25 295 0.0 2.0 0.00 0.00 0.00 67 1012.0
20171215183925 25 295 0.0 1.0 0.00 0.00 0.00 68 1012.3
20171215182902 25 295 1.0 2.0 0.00 0.00 0.00 68 1012.6
20171215182406 25 295 0.0 4.0 0.00 0.00 0.00 67 1012.7
20171215181851 25 295 1.0 5.0 0.00 0.00 0.00 67 1012.8
20171215180914 25 297 1.0 3.0 0.00 0.00 0.00 67 1013.0
20171215180409 25 306 1.0 2.0 0.00 0.00 0.00 66 1013.0
20171215174907 25 206 2.0 4.0 0.00 0.00 0.00 66 1013.3
20171215174402 25 196 1.0 3.0 0.00 0.00 0.00 67 1013.5
20171215173436 25 216 2.0 4.0 0.00 0.00 0.00 68 1013.3
20171215172908 25 202 1.0 3.0 0.00 0.00 0.00 68 1013.4
20171215171346 24 221 1.0 2.0 0.00 0.00 0.00 69 1013.8
20171215170942 24 221 1.0 2.0 0.00 0.00 0.00 69 1013.8
20171215170857 24 221 1.0 2.0 0.00 0.00 0.00 69 1013.8
20171215170356 24 258 0.0 3.0 0.00 0.00 0.00 69 1013.9
20171215164910 24 208 1.0 3.0 0.00 0.00 0.00 69 1014.4
20171215164430 24 216 1.0 3.0 0.00 0.00 0.00 70 1014.4
20171215163845 23 241 1.0 4.0 0.00 0.00 0.00 69 1014.6
20171215163419 23 227 1.0 3.0 0.00 0.00 0.00 69 1014.8
20171215161349 23 254 1.0 2.0 0.00 0.00 0.00 69 1015.4
20171215160929 23 254 0.0 3.0 0.00 0.00 0.00 69 1015.5
20171215160406 22 255 1.0 4.0 0.00 0.00 0.00 68 1015.6
20171215155902 22 245 2.0 4.0 0.00 0.00 0.00 69 1015.7
20171215154403 22 279 1.0 4.0 0.00 0.00 0.00 70 1016.0
20171215152846 21 252 1.0 3.0 0.00 0.00 0.00 70 1016.3
20171215150852 20 279 1.0 2.0 0.00 0.00 0.00 70 1016.6
20171215150352 20 279 0.0 2.0 0.00 0.00 0.00 70 1016.7
20171215144854 19 310 0.0 1.0 0.00 0.00 0.00 72 1016.9
20171215144404 19 311 0.0 1.0 0.00 0.00 0.00 72 1016.9
20171215143407 19 310 1.0 2.0 0.00 0.00 0.00 74 1017.0
20171215142837 18 310 0.0 2.0 0.00 0.00 0.00 75 1016.7
20171215142415 18 311 0.0 2.0 0.00 0.00 0.00 76 1016.7
20171215141322 17 311 1.0 2.0 0.00 0.00 0.00 77 1016.5
20171215140851 17 311 1.0 2.0 0.00 0.00 0.00 77 1016.5
20171215135915 17 311 0.0 2.0 0.00 0.00 0.00 78 1016.6
20171215134432 16 311 0.0 1.0 0.00 0.00 0.00 80 1016.4
20171215133434 16 311 1.0 2.0 0.00 0.00 0.00 81 1016.2
20171215133403 16 311 1.0 2.0 0.00 0.00 0.00 81 1016.2
20171215132431 15 311 0.0 2.0 0.00 0.00 0.00 81 1016.3
20171215130849 14 311 1.0 2.0 0.00 0.00 0.00 84 1016.3
20171215130401 14 311 0.0 2.0 0.00 0.00 0.00 84 1016.2
20171215124930 13 311 0.0 2.0 0.00 0.00 0.00 83 1016.3
20171215124407 13 310 0.0 0.0 0.00 0.00 0.00 82 1016.5
20171215122829 13 310 1.0 2.0 0.00 0.00 0.00 81 1016.2
20171215122414 13 310 0.0 2.0 0.00 0.00 0.00 81 1015.9
20171215121339 13 310 0.0 2.0 0.00 0.00 0.00 81 1016.0
20171215120841 13 310 1.0 2.0 0.00 0.00 0.00 80 1015.9
20171215115847 13 310 0.0 0.0 0.00 0.00 0.00 79 1015.9
20171215113912 13 310 0.0 0.0 0.00 0.00 0.00 78 1015.9
20171215112843 14 310 0.0 1.0 0.00 0.00 0.00 78 1015.7
20171215111358 14 310 1.0 2.0 0.00 0.00 0.00 77 1015.8
20171215110912 14 310 1.0 1.0 0.00 0.00 0.00 78 1015.6
20171215110350 14 310 0.0 1.0 0.00 0.00 0.00 78 1015.7
20171215105906 14 310 0.0 2.0 0.00 0.00 0.00 78 1015.6
20171215105423 14 310 1.0 2.0 0.00 0.00 0.00 77 1015.7
20171215104408 14 311 0.0 2.0 0.00 0.00 0.00 77 1015.6
20171215102907 13 311 2.0 2.0 0.00 0.00 0.00 79 1015.3
20171215101936 13 299 1.0 3.0 0.00 0.00 0.00 79 1015.4
20171215100425 13 297 0.0 0.0 0.00 0.00 0.00 79 1015.5
20171215100339 13 297 0.0 0.0 0.00 0.00 0.00 79 1015.5
20171215095912 13 297 0.0 0.0 0.00 0.00 0.00 79 1015.4
20171215094415 13 297 0.0 0.0 0.00 0.00 0.00 78 1015.5
20171215093914 13 297 0.0 0.0 0.00 0.00 0.00 77 1015.6
20171215093401 13 297 0.0 0.0 0.00 0.00 0.00 77 1015.7
20171215092927 13 297 0.0 0.0 0.00 0.00 0.00 77 1015.8
20171215092856 13 297 0.0 0.0 0.00 0.00 0.00 77 1015.8
20171215091415 13 297 0.0 2.0 0.00 0.00 0.00 77 1015.7
20171215090932 13 297 2.0 2.0 0.00 0.00 0.00 76 1015.6
20171215090419 13 297 0.0 1.0 0.00 0.00 0.00 75 1015.8
20171215085348 14 297 0.0 1.0 0.00 0.00 0.00 75 1015.9
20171215084408 14 297 0.0 1.0 0.00 0.00 0.00 74 1016.0
20171215082839 14 297 0.0 1.0 0.00 0.00 0.00 73 1016.1
20171215081918 14 297 0.0 1.0 0.00 0.00 0.00 73 1016.0
20171215080921 15 297 0.0 2.0 0.00 0.00 0.00 72 1016.0
20171215075923 15 297 0.0 1.0 0.00 0.00 0.00 70 1016.2
20171215075351 15 297 0.0 1.0 0.00 0.00 0.00 71 1016.1
20171215074419 15 297 0.0 2.0 0.00 0.00 0.00 71 1016.3
20171215073356 15 297 0.0 2.0 0.00 0.00 0.00 70 1016.2
20171215072340 15 304 0.0 2.0 0.00 0.00 0.00 69 1016.2
20171215071905 16 304 0.0 3.0 0.00 0.00 0.00 69 1016.2
20171215071411 16 304 1.0 3.0 0.00 0.00 0.00 69 1016.2
20171215070905 16 305 1.0 5.0 0.00 0.00 0.00 69 1016.1
20171215070347 15 317 2.0 5.0 0.00 0.00 0.00 69 1015.9
20171215065848 15 303 1.0 6.0 0.00 0.00 0.00 70 1016.0
20171215064858 15 306 2.0 5.0 0.00 0.00 0.00 70 1015.8
20171215064340 15 335 1.0 5.0 0.00 0.00 0.00 70 1015.8
20171215063902 15 327 1.0 3.0 0.00 0.00 0.00 70 1015.8
20171215063427 15 328 1.0 3.0 0.00 0.00 0.00 69 1015.7
20171215062825 15 301 1.0 3.0 0.00 0.00 0.00 68 1015.6
20171215062355 15 198 0.0 2.0 0.00 0.00 0.00 67 1015.6
20171215061851 16 198 0.0 2.0 0.00 0.00 0.00 67 1015.6
20171215061355 16 198 0.0 1.0 0.00 0.00 0.00 67 1015.6
20171215060906 16 198 0.0 2.0 0.00 0.00 0.00 67 1015.5
20171215060335 16 185 0.0 2.0 0.00 0.00 0.00 67 1015.3
20171215055848 16 185 0.0 2.0 0.00 0.00 0.00 67 1015.2
20171215055343 16 185 0.0 3.0 0.00 0.00 0.00 66 1015.1
20171215054826 16 185 1.0 3.0 0.00 0.00 0.00 66 1015.1
20171215054357 16 291 0.0 2.0 0.00 0.00 0.00 67 1015.0
20171215053847 16 291 1.0 3.0 0.00 0.00 0.00 64 1015.0
20171215052856 16 331 2.0 5.0 0.00 0.00 0.00 64 1014.8
20171215052323 16 331 2.0 5.0 0.00 0.00 0.00 64 1014.8
20171215051830 16 323 2.0 5.0 0.00 0.00 0.00 65 1014.9
20171215051345 16 290 2.0 6.0 0.00 0.00 0.00 65 1014.9
20171215050854 16 318 2.0 5.0 0.00 0.00 0.00 64 1014.9
20171215050342 16 254 3.0 7.0 0.00 0.00 0.00 64 1014.9
20171215045843 16 331 3.0 7.0 0.00 0.00 0.00 64 1015.0
20171215044337 16 317 3.0 7.0 0.00 0.00 0.00 63 1015.2
20171215043835 16 314 2.0 4.0 0.00 0.00 0.00 64 1015.3
20171215043327 16 215 2.0 5.0 0.00 0.00 0.00 63 1015.3
20171215041005 16 324 1.0 3.0 0.00 0.00 0.00 61 1015.6
20171215040855 16 324 1.0 3.0 0.00 0.00 0.00 61 1015.6
20171215035920 17 336 2.0 3.0 0.00 0.00 0.00 60 1015.6
20171215034410 17 270 0.0 3.0 0.00 0.00 0.00 59 1015.8
20171215034339 17 270 0.0 3.0 0.00 0.00 0.00 59 1015.8